Lexington Weather

Lexington, Massachusetts, USA

79°F
8/3/2020 8:33am 
  • Lexington Conditions: Few Clouds
  • Temperature: 78.6°F / 25.9°CWarmer 1.8°F than last hour.
  • Dew Point: 72.0°FDecreased 1.6°Fsince last hour.
  • Relative Humidity: 80%Decreased 10.0% since last hour.
  • Wind: Wind from SW SW 1 mph, 10-min avg: 3 mph, gust: 10 mph
  • Barometer: 29.86 in Steady
  • Visibility: 10 miles
  • Rain Today: 0.00 in
  •   
Southeast Middlesex County - Tropical Storm Watch - Tropical Cyclone Statement
 - SEE ALL NEARBY ALERTS -

Regional Weather Roundup
for Boston / Norton, MA

        
000
ASUS41 KBOX 020304
RWRBOX

REGIONAL WEATHER ROUNDUP
NATIONAL WEATHER SERVICE BOSTON/NORTON MA
1100 PM EDT SAT AUG 01 2020

NOTE:  "FAIR" INDICATES FEW OR NO CLOUDS BELOW 12,000 FEET WITH NO 
SIGNIFICANT WEATHER AND/OR OBSTRUCTIONS TO VISIBILITY.

MAZALL-020400-
EASTERN MASSACHUSETTS
  
CITY           SKY/WX    TMP DP  RH WIND       PRES   REMARKS
BOSTON         MOCLDY    74  67  78 S9        29.99S                  
BEVERLY        CLEAR     73  66  78 SE6       29.99R                  
LAWRENCE       PTCLDY    74  64  71 SE5       30.01R                  
BEDFORD        PTCLDY    76  67  73 S9        29.98R                  
BLUE HILL      NOT AVBL                                               
NORWOOD        PTCLDY    74  68  81 S5        29.99R                  
MARSHFIELD     PTCLDY    73  68  83 SW5       30.00S                  
PLYMOUTH       PTCLDY    73  67  81 VRB6      30.02R                  
TAUNTON        PTCLDY    74  68  81 S5        30.00S                  
NEW BEDFORD    PTCLDY    73  70  90 S3        30.01R                  
$$

MAZALL-020400-
CAPE COD AND THE ISLANDS
  
CITY           SKY/WX    TMP DP  RH WIND       PRES   REMARKS
FALMOUTH       CLEAR     72  66  83 SW5       30.02S                  
HYANNIS        PTCLDY    75  66  73 SW9       30.00S                  
CHATHAM        CLEAR     73  64  73 SW5       30.03R                  
PROVINCETOWN   CLEAR     74  67  78 S9        30.02R                  
NANTUCKET      CLEAR     70  65  84 SW7       30.03R                  
MARTHAS VNYRD  PTCLDY    70  67  90 S6        30.02S                  
$$
 
MAZALL-020400-
CENTRAL AND WESTERN MASSACHUSETTS
  
CITY           SKY/WX    TMP DP  RH WIND       PRES   REMARKS
WORCESTER      PTCLDY    73  63  70 SW5       30.03R                  
FITCHBURG      PTCLDY    72  63  73 CALM      30.00R                  
ORANGE         MOCLDY    71  66  84 CALM      30.01R                  
SPRINGFIELD    MOCLDY    78  61  55 S6        29.97R                  
WESTFIELD      MOCLDY    78  62  57 S6        29.97R                  
NORTH ADAMS    CLOUDY    70  63  78 CALM      29.99S                  
PITTSFIELD     CLOUDY    69  62  78 W3        30.00S                  
$$
 
RIZALL-020400-
RHODE ISLAND
  
CITY           SKY/WX    TMP DP  RH WIND       PRES   REMARKS
PROVIDENCE     MOCLDY    75  71  87 S8        30.01R                  
NEWPORT        MOCLDY    75  72  90 S5        30.01S                  
BLOCK ISLAND   PTCLDY    74  71  91 S7        30.01S                  
SMITHFIELD     PTCLDY    73  71  93 CALM      30.02R                  
WESTERLY       MOCLDY    75  68  78 SW3       30.01R                  
$$
 
CTZALL-020400-
CONNECTICUT
  
CITY           SKY/WX    TMP DP  RH WIND       PRES   REMARKS
BRADLEY INTL   MOCLDY    80  63  55 S7        29.97S                  
HARTFORD       MOCLDY    79  65  62 S5        29.97S                  
BRIDGEPORT     PTCLDY    79  71  76 SW6       29.99R                  
DANBURY        MOCLDY    75  64  68 S7        30.01R                  
GROTON         MOCLDY    73  70  90 CALM      29.99S                  
NEW HAVEN      MOCLDY    79  73  82 SW6       29.99S                  
CHESTER        NOT AVBL                                               
MERIDEN        MOCLDY    77  64  64 CALM      29.99S                  
WILLIMANTIC    CLOUDY    77  64  64 SE3       30.00R                  
OXFORD         MOCLDY    74  65  73 S3        30.02S                  
$$

MEZ002-015-021-024-NHZ003-005-008-011-012-014-VTZ005-008-020400-
NORTHERN NEW ENGLAND
  
CITY           SKY/WX    TMP DP  RH WIND       PRES   REMARKS
PORTLAND ME    PTCLDY    74  62  66 SW6       29.99R                  
BANGOR ME      PTCLDY    70  63  78 S6        29.97R                  
CONCORD NH     CLEAR     73  63  70 SE5       29.99R                  
MANCHESTER NH  PTCLDY    76  61  59 S3        29.98R                  
NASHUA NH      PTCLDY    73  65  75 CALM      30.00R                  
PORTSMOUTH NH  PTCLDY    71  60  70 CALM      29.98R                  
JAFFREY NH     PTCLDY    69  62  78 CALM      30.03R                  
KEENE NH       PTCLDY    68  66  93 CALM      30.00R                  
BURLINGTON VT  PTCLDY    72  63  73 E5        29.95S                  
MT. WASHINGTON FOG       54  52  94 S7          N/A  VSB 1/8          
$$

NYZ052-076-020400-
EASTERN NEW YORK
  
CITY           SKY/WX    TMP DP  RH WIND       PRES   REMARKS
ALBANY         MOCLDY    72  63  73 CALM      29.95S                  
NEW YORK CITY  MOCLDY    80  71  74 S9        29.97S                  
$$
 
ANZALL-020400-
MARINE OBSERVATIONS
  
STATION/POSITION TIME  TEMP    WIND        PRES    VSBY  WAVE
                       AIR SEA DIR/SP/G                  HT/PER
                 (UTC) (F)     (DEG/KT/KT) (MB)    (MI)  (FT/S)
BOSTON BUOY      0250   71 71  150/  6/  8 1014.3R         1/10
BUZZARDS BAY     0200          180/ 14/ 15 1017.0R
NANTUCKET SOUND  0240      77  210/ 10/ 14 1015.7
MASS BAY-STELLWA 0204   74     200/ 10/ 12 1013.1R  1 7/8  1/ 3
ISLE OF SHOALS   0200   73     200/ 10/ 11 1014.9R
S OF BLOCK IS    0226      74                N/A           3/11
$$

......................KEY.........................
  SKY/WX - SKY CONDITION/PRESENT WEATHER
  TMP    - TEMPERATURE IN FAHRENHEIT
  DWPT   - DEWPOINT IN FAHRENHEIT
  RH     - RELATIVE HUMIDITY IN PERCENT
  WIND   - DIRECTION AND SPEED IN MPH
  PRES   - MEAN SEA LEVEL PRESSURE IN INCHES OF HG
  WCI    - WIND CHILL INDEX
  VSB    - VISIBILITY IN MILES
  HX     - HEAT INDEX
  TC     - TEMPERATURE IN CELSIUS
  VRB    - VARIABLE WIND DIRECTION
  N/A    - NOT AVAILABLE
  
      

Other recent Regional Weather Roundups

Mon Aug 3, 8:04am

Mon Aug 3, 7:04am

Mon Aug 3, 6:04am

Mon Aug 3, 5:04am

Mon Aug 3, 4:04am

Mon Aug 3, 3:04am

Mon Aug 3, 2:04am

Mon Aug 3, 1:04am

Mon Aug 3, 12:05am

Sun Aug 2, 11:04pm

Sun Aug 2, 10:04pm

Sun Aug 2, 9:04pm

Sun Aug 2, 8:04pm

Sun Aug 2, 7:04pm

Sun Aug 2, 6:04pm

Sun Aug 2, 5:04pm

Sun Aug 2, 4:05pm

Sun Aug 2, 3:04pm

Sun Aug 2, 2:05pm

Sun Aug 2, 1:04pm

Sun Aug 2, 12:04pm

Sun Aug 2, 11:04am

Sun Aug 2, 10:04am

Sun Aug 2, 9:05am

Sun Aug 2, 8:05am

Sun Aug 2, 7:04am

Sun Aug 2, 6:04am

Sun Aug 2, 5:04am

Sun Aug 2, 4:05am

Sun Aug 2, 3:04am

Sun Aug 2, 2:04am

Sun Aug 2, 1:04am

Sun Aug 2, 12:05am

Sat Aug 1, 10:04pm

Sat Aug 1, 9:04pm

Sat Aug 1, 8:05pm

Sat Aug 1, 7:04pm

Sat Aug 1, 6:04pm

Sat Aug 1, 5:05pm

Sat Aug 1, 4:05pm

Sat Aug 1, 3:04pm

Sat Aug 1, 2:04pm

Sat Aug 1, 1:04pm

Sat Aug 1, 12:04pm

Sat Aug 1, 11:05am

Sat Aug 1, 10:05am

Sat Aug 1, 9:04am

Sat Aug 1, 8:04am

Sat Aug 1, 7:04am

Sat Aug 1, 6:04am

Sat Aug 1, 5:04am

Sat Aug 1, 4:05am

Sat Aug 1, 3:04am

Sat Aug 1, 2:04am

Sat Aug 1, 1:04am

Sat Aug 1, 12:05am

Fri Jul 31, 11:05pm

Fri Jul 31, 10:04pm

Fri Jul 31, 9:04pm

Fri Jul 31, 8:05pm

Fri Jul 31, 7:05pm

Fri Jul 31, 6:04pm

Fri Jul 31, 5:04pm

Fri Jul 31, 4:05pm

Fri Jul 31, 3:04pm

Fri Jul 31, 2:05pm

Fri Jul 31, 1:04pm

Fri Jul 31, 12:04pm

Fri Jul 31, 11:04am

Fri Jul 31, 10:04am

Fri Jul 31, 9:04am

Fri Jul 31, 8:04am

Fri Jul 31, 7:04am

Fri Jul 31, 6:04am

Fri Jul 31, 5:04am

Fri Jul 31, 4:04am

Fri Jul 31, 3:04am

Fri Jul 31, 2:04am

Fri Jul 31, 1:05am

Fri Jul 31, 12:04am

Thu Jul 30, 11:04pm

Thu Jul 30, 10:04pm

Thu Jul 30, 9:04pm

Thu Jul 30, 8:04pm

Thu Jul 30, 7:05pm

Thu Jul 30, 6:04pm

Thu Jul 30, 5:04pm

Thu Jul 30, 4:05pm

Thu Jul 30, 3:04pm

Thu Jul 30, 2:05pm

Thu Jul 30, 1:04pm

Thu Jul 30, 12:04pm

Thu Jul 30, 11:04am

Thu Jul 30, 10:05am

Thu Jul 30, 9:04am

Thu Jul 30, 8:04am

Thu Jul 30, 7:04am

Thu Jul 30, 6:04am

Thu Jul 30, 5:04am

Thu Jul 30, 4:04am

Thu Jul 30, 3:04am

Thu Jul 30, 2:04am

Thu Jul 30, 1:04am

Thu Jul 30, 12:04am

Wed Jul 29, 11:04pm

Wed Jul 29, 10:04pm

Wed Jul 29, 9:04pm

Wed Jul 29, 8:04pm

Wed Jul 29, 7:05pm

Wed Jul 29, 6:05pm

Wed Jul 29, 5:04pm

Wed Jul 29, 4:04pm

Wed Jul 29, 3:04pm

Wed Jul 29, 2:04pm

Wed Jul 29, 1:05pm

Wed Jul 29, 12:05pm

Wed Jul 29, 11:04am

Wed Jul 29, 10:04am

Wed Jul 29, 9:04am

Wed Jul 29, 8:04am

Wed Jul 29, 7:04am

Wed Jul 29, 6:04am

Wed Jul 29, 5:04am

Wed Jul 29, 4:04am

Wed Jul 29, 3:04am

Wed Jul 29, 2:04am

Wed Jul 29, 1:04am

Wed Jul 29, 12:05am

Tue Jul 28, 11:05pm

Tue Jul 28, 10:05pm

Tue Jul 28, 9:04pm

Tue Jul 28, 8:04pm

Tue Jul 28, 7:04pm

Tue Jul 28, 6:04pm

Tue Jul 28, 5:04pm

Tue Jul 28, 4:05pm

Tue Jul 28, 3:05pm

Tue Jul 28, 2:04pm

Tue Jul 28, 1:05pm

Tue Jul 28, 12:04pm

Tue Jul 28, 11:04am

Tue Jul 28, 10:04am

Tue Jul 28, 9:04am

Tue Jul 28, 8:04am

Tue Jul 28, 7:04am

Tue Jul 28, 6:04am

Tue Jul 28, 5:04am

Tue Jul 28, 4:04am

Tue Jul 28, 3:04am

Tue Jul 28, 2:04am

Tue Jul 28, 1:04am

Tue Jul 28, 12:05am

Mon Jul 27, 11:04pm

Mon Jul 27, 10:05pm

Mon Jul 27, 9:05pm

Mon Jul 27, 8:04pm

Mon Jul 27, 7:04pm

Mon Jul 27, 6:05pm

Mon Jul 27, 5:05pm

Mon Jul 27, 4:04pm

Mon Jul 27, 3:04pm

Mon Jul 27, 2:04pm

Mon Jul 27, 1:04pm

Mon Jul 27, 12:04pm

Mon Jul 27, 11:04am

Mon Jul 27, 10:04am

Mon Jul 27, 9:04am

Meta data:

ID: 25f48676-4aab-4072-be24-0e5f0f129097
Link: https://api.weather.gov/products/25f48676-4aab-4072-be24-0e5f0f129097